EW4821 Weather Reports


Display with metric or nautical units.
time (UTC)temp
F
wind
direction
speed
MPH
gust
MPH
rain 1hr
in
rain 24hr
in
rain mn
in
humidity
%
barometer
mb
20260505004510 62 152 2.0 6.0 0.00 0.00 0.00 59 1009.8
20260505003007 62 145 2.0 5.0 0.00 0.00 0.00 58 1009.8
20260505001519 63 165 3.0 6.0 0.00 0.00 0.00 56 1009.8
20260505000021 64 140 3.0 7.0 0.00 0.00 0.00 56 1009.8
20260504234512 65 159 2.0 6.0 0.00 0.00 0.00 54 1009.8
20260504233014 66 142 3.0 7.0 0.00 0.00 0.00 53 1009.8
20260504231510 67 156 3.0 6.0 0.00 0.00 0.00 51 1009.7
20260504224523 68 320 1.0 6.0 0.00 0.00 0.00 51 1009.8
20260504223012 69 134 2.0 6.0 0.00 0.00 0.00 49 1009.7
20260504221516 71 138 4.0 7.0 0.00 0.00 0.00 47 1009.7
20260504220022 72 142 4.0 11.0 0.00 0.00 0.00 45 1009.6
20260504214514 72 163 6.0 12.0 0.00 0.00 0.00 43 1009.7
20260504211516 72 181 5.0 10.0 0.00 0.00 0.00 46 1009.5
20260504210013 71 165 6.0 16.0 0.00 0.00 0.00 44 1009.6
20260504204524 72 157 4.0 15.0 0.00 0.00 0.00 43 1009.7
20260504203025 71 202 8.0 17.0 0.00 0.00 0.00 46 1009.9
20260504201519 72 159 6.0 11.0 0.00 0.00 0.00 42 1010.1
20260504200019 72 161 7.0 12.0 0.00 0.00 0.00 43 1010.4
20260504194524 71 168 1.0 12.0 0.00 0.00 0.00 45 1010.6
20260504193015 71 177 6.0 10.0 0.00 0.00 0.00 45 1010.8
20260504191517 71 165 9.0 15.0 0.00 0.00 0.00 46 1011.1
20260504190029 70 190 5.0 13.0 0.00 0.00 0.00 45 1011.5
20260504184523 70 194 7.0 15.0 0.00 0.00 0.00 44 1011.6
20260504183023 69 172 7.0 14.0 0.00 0.00 0.00 47 1011.7
20260504180013 70 181 3.0 11.0 0.00 0.00 0.00 47 1011.8
20260504174512 69 165 4.0 11.0 0.00 0.00 0.00 50 1012.0
20260504173022 68 141 1.0 12.0 0.00 0.00 0.00 51 1012.1
20260504171518 68 228 8.0 16.0 0.00 0.00 0.00 44 1012.3
20260504081528 44 165 0.0 0.0 0.00 0.00 0.00 67 1014.8
20260504050020 46 196 0.0 0.0 0.00 0.00 0.00 61 1015.2
20260504044523 46 196 0.0 0.0 0.00 0.00 0.00 61 1015.2
20260504043035 46 196 0.0 0.0 0.00 0.00 0.00 62 1015.1
20260504041509 46 196 0.0 0.0 0.00 0.00 0.00 62 1015.1
20260504040013 46 196 0.0 0.0 0.00 0.00 0.00 60 1015.0
20260504034507 47 200 0.0 1.0 0.00 0.00 0.00 60 1014.9
20260504033024 47 187 0.0 1.0 0.00 0.00 0.00 58 1014.9
20260504031523 47 212 0.0 1.0 0.00 0.00 0.00 57 1014.7
20260504030015 48 225 0.0 0.0 0.00 0.00 0.00 57 1014.7
20260504024517 48 225 0.0 0.0 0.00 0.00 0.00 56 1014.8
20260504023014 49 225 0.0 0.0 0.00 0.00 0.00 53 1014.6
20260504021510 49 228 0.0 0.0 0.00 0.00 0.00 53 1014.7
20260504020014 50 228 0.0 0.0 0.00 0.00 0.00 52 1014.7
20260504014519 51 228 0.0 0.0 0.00 0.00 0.00 51 1014.6
20260504013031 51 228 0.0 0.0 0.00 0.00 0.00 48 1014.5
20260504011523 52 228 0.0 0.0 0.00 0.00 0.00 48 1014.4
20260504010019 52 228 0.0 0.0 0.00 0.00 0.00 49 1014.3